CAPE
0 0 0 0 0 0 0 0 0 0 0 0 0 0 0 0 11 152 114 45 46 15 203 427 812 882 1177 1567 1963 2309 2442 2596 2449 2553 2640 2590 2523 2271 2019 2012 1990 2038 1646 1591
0 0 0 0 0 0 0 0 0 0 0 0 0 0 0 0 0 15 103 86 4 77 277 345 822 1001 1095 1437 2207 2380 2614 2666 2770 2709 2648 2656 2783 2720 2453 2177 2426 2359 2158 1921
0 0 0 0 0 0 0 0 0 0 0 0 0 0 0 0 0 0 60 7 2 217 299 491 845 1044 1105 1507 2044 2606 2683 2879 2919 2879 2809 2744 2725 2813 2910 2772 2539 2668 2884 3031
0 0 0 0 0 0 0 0 0 0 0 0 0 0 0 0 0 0 21 9 164 354 461 680 873 1108 1199 1404 1820 2533 2698 2852 3045 2925 2864 2822 2857 2903 2893 3008 2965 2823 2640 2797
0 0 0 0 0 0 0 0 0 0 0 0 0 0 0 0 0 0 0 0 6 602 506 604 857 1139 1242 1376 1765 1975 2500 2686 2896 2872 2764 2844 2822 2927 2958 3053 3136 3143 3200 3163
0 0 0 0 0 1 0 0 189 0 0 0 0 0 0 0 2 0 0 0 37 256 1085 800 829 861 1114 1326 1596 1861 2062 2461 2717 2749 2702 2767 2875 2892 2959 3038 3118 3228 3346 3391
0 0 0 0 0 40 8 0 231 73 5 0 0 0 56 203 28 400 0 0 0 0 581 1517 978 794 871 1072 1346 1652 1942 2042 2426 2654 2668 2674 2902 2956 3075 3070 3197 3232 3330 3397
35 18 13 25 42 0 31 655 194 62 23 0 0 0 0 76 101 576 487 374 0 0 0 238 1482 1234 1037 977 1098 1432 1630 1787 1898 2391 2474 2680 2998 3087 3127 3177 3225 3115 2721 2740
42 4 381 61 1059 715 1260 1272 1162 910 743 918 1347 1858 1984 2293 1990 722 1646 1947 2052 239 0 37 961 1465 1257 1209 1163 1313 1432 1687 1857 2087 2588 2987 3037 3118 3184 3209 2905 2476 2282 2315
3 39 810 259 1146 874 1041 1013 969 861 894 1049 1487 1993 2112 2219 2394 2530 2687 2896 2986 2814 2461 2418 1908 1850 1549 1514 1931 1995 2236 3191 3216 2965 2918 3013 3035 2992 3098 2980 2647 2415 2147 1299
118 6 378 618 524 614 628 631 618 1036 1094 1278 1704 2066 2073 2046 2059 2131 2392 2754 3107 3301 3204 3040 3118 3076 3001 2524 3235 3165 2996 2832 2959 2928 3067 3110 3143 3109 2467 2281 2068 1745 1180 937
81 70 115 340 439 387 285 104 212 383 900 1281 1543 1730 1917 1771 1588 1465 1444 1583 1916 1994 2461 2352 2838 3110 3245 2963 2725 2954 3157 2857 2695 3255 3158 3074 2359 1370 1272 1173 1268 970 848 876
113 114 125 75 17 95 137 328 100 129 60 523 969 1135 1242 1182 1091 1088 1059 871 613 876 673 475 965 952 3342 3135 2979 3063 2853 2885 2722 2242 1417 1238 1284 1211 1043 821 711 948 989 991
179 48 40 29 51 15 34 34 39 51 182 184 249 572 719 527 442 443 415 573 577 330 6 1 12 0 2530 2944 2530 2470 1975 1033 2020 1549 1063 1033 1173 1072 838 711 610 848 819 601
76 92 47 31 43 22 23 26 55 43 20 22 6 19 70 134 281 340 418 465 574 605 197 218 751 978 1358 1767 1729 1602 1541 1513 1528 1396 1228 1287 1221 1085 726 416 550 527 593 263
59 67 54 38 9 22 5 7 47 43 10 1 0 0 0 60 156 563 607 749 707 798 667 663 716 911 1057 1235 1318 1336 1343 1364 1359 1245 1214 1182 971 721 642 604 581 394 270 131
5 23 12 32 4 0 0 0 0 0 0 0 0 0 16 27 10 288 380 536 546 804 821 767 928 930 840 1136 1366 1312 1314 1244 1101 977 924 825 643 472 286 304 205 118 16 7
0 8 7 3 0 9 18 0 3 12 19 10 3 0 6 0 0 0 177 111 50 125 117 117 87 272 359 355 455 681 791 936 704 1424 1244 804 740 587 523 259 140 73 5 0
0 0 0 0 3 6 2 7 43 17 12 17 24 4 0 0 0 0 0 0 0 0 65 106 151 130 76 16 113 118 204 328 364 625 915 855 666 593 505 473 308 104 76 44
0 0 65 34 56 29 29 28 11 41 2 11 21 5 0 1 0 3 2 0 0 7 0 1 2 11 0 45 94 72 166 124 177 277 249 162 163 48 54 175 212 147 88 51
73 27 39 67 46 46 33 38 55 44 39 61 82 52 36 27 33 12 15 10 1 3 27 7 2 0 0 1 7 4 17 17 29 69 64 66 49 65 44 94 103 102 66 49
54 72 53 11 22 23 34 11 25 21 11 19 39 63 70 43 17 11 18 37 42 54 91 97 94 54 20 1 0 31 54 28 56 71 56 56 56 42 37 26 17 53 35 28
5 2 2 4 4 7 16 22 22 12 15 15 1 31 68 56 9 4 2 0 0 0 19 32 13 13 23 38 24 38 24 27 38 47 57 64 30 23 26 39 46 46 53 67
2 0 0 0 2 2 0 2 18 10 19 22 16 31 36 1 32 13 0 1 17 13 1 12 27 15 27 20 34 22 26 30 2 3 0 1 0 0 0 0 0 3 10 22
11 8 6 3 0 0 1 8 0 10 17 10 23 28 19 14 16 3 0 0 2 4 19 4 0 0 9 21 37 20 10 19 9 11 7 0 0 0 0 0 0 0 0 3
0 0 0 0 0 0 0 0 0 0 0 0 12 22 7 11 16 31 23 14 7 0 4 32 20 5 0 0 15 40 33 32 6 2 1 2 15 7 3 1 5 0 0 0
0 0 0 0 0 0 0 0 0 0 0 0 0 0 0 1 6 13 18 21 19 17 6 2 22 11 0 0 6 13 22 56 38 16 18 19 18 19 28 23 0 4 3 0
CIN
0 0 0 0 0 0 0 0 0 0 0 0 0 0 0 0 -21 -20 -11 -7 -121 -154 -153 -324 -374 -388 -447 -476 -471 -420 -362 -329 -352 -297 -258 -228 -220 -248 -234 -218 -165 -101 -122 -108
0 0 0 0 0 0 0 0 0 0 0 0 0 0 0 0 0 -31 -26 -21 -15 -193 -147 -128 -344 -357 -411 -438 -471 -421 -350 -358 -329 -303 -267 -240 -202 -200 -212 -208 -139 -113 -87 -77
0 0 0 0 0 0 0 0 0 0 0 0 0 0 0 0 -5 0 -14 -11 -88 -137 -87 -196 -321 -376 -398 -454 -482 -433 -387 -328 -311 -300 -280 -263 -230 -194 -168 -147 -128 -88 -20 -3
0 0 0 0 0 0 0 0 0 0 0 0 0 0 0 0 0 0 -75 -62 -221 -146 -110 -185 -269 -348 -349 -422 -442 -456 -404 -344 -308 -319 -312 -265 -227 -209 -170 -128 -97 -77 -62 -26
0 0 0 0 0 0 0 0 0 0 0 0 0 0 0 0 0 0 0 0 -61 -239 -115 -179 -220 -264 -315 -364 -416 -419 -421 -396 -357 -324 -325 -272 -252 -222 -173 -112 -73 -65 -51 -26
0 0 0 0 0 -3 0 0 -171 0 0 0 0 0 0 0 -36 0 0 0 -76 -293 -293 -106 -80 -153 -259 -329 -383 -380 -420 -450 -429 -357 -319 -308 -264 -230 -176 -127 -104 -80 -54 -14
0 0 0 0 0 -25 -21 0 -81 -132 -99 0 0 -43 -219 -314 -63 -176 0 0 0 0 -272 -250 -96 -200 -317 -318 -344 -360 -406 -415 -440 -362 -313 -292 -254 -189 -155 -113 -83 -52 -8 -5
-4 0 -3 -73 -87 -6 -98 -218 -78 -96 -102 0 -30 -58 0 -243 -269 -187 -144 -186 0 0 0 -342 -298 -140 -147 -285 -320 -371 -377 -348 -361 -381 -288 -269 -214 -151 -101 -82 -44 -25 -28 -32
-86 -12 -53 -127 -116 -272 -235 -227 -219 -249 -246 -278 -278 -278 -231 -264 -354 -481 -412 -328 -270 -105 0 -119 -498 -256 -168 -139 -243 -376 -311 -485 -475 -374 -314 -240 -199 -103 -61 -47 -27 -31 -60 -38
-122 -39 0 -144 -31 -102 -91 -140 -165 -220 -268 -267 -207 -172 -176 -184 -195 -239 -232 -172 -222 -303 -461 -512 -459 -272 -241 -473 -355 -517 -446 -313 -263 -259 -224 -177 -115 -81 -67 -40 -34 -85 -52 -116
-131 -23 -13 -20 -67 -85 -64 -47 -56 -125 -143 -165 -151 -138 -119 -95 -85 -92 -91 -85 -109 -146 -153 -274 -426 -401 -388 -463 -448 -392 -317 -260 -153 -125 -96 -55 -28 -12 -40 -37 -109 -83 -187 -209
-41 -23 -33 -20 -20 -71 -90 -35 -27 -151 -98 -79 -83 -81 -69 -49 -28 -28 -37 -73 -55 -62 -104 -122 -63 -126 -309 -345 -320 -316 -228 -178 -62 -35 -13 -8 -45 -69 -120 -99 -76 -199 -247 -227
-23 -4 -31 -133 -116 -91 -111 -91 -176 -153 -125 -91 -91 -64 -53 -42 -43 -57 -69 -65 -73 -50 -61 -91 -17 -11 -133 -88 -46 -136 -142 -62 -62 -75 -97 -83 -114 -43 -171 -243 -227 -212 -184 -158
-8 -1 -15 -145 -59 -89 -95 -92 -90 -64 -45 -38 -60 -56 -59 -28 -55 -75 -151 -311 -311 -414 -635 -349 -8 0 -59 -50 -62 -26 -26 -24 -53 -83 -199 -161 -205 -106 -186 -210 -248 -165 -112 -113
-4 -3 0 -4 -2 -16 -49 -35 -22 -12 -5 -3 -11 -17 -44 -49 -272 -272 -260 -255 -197 -28 -40 -2 -10 -11 -45 -118 -130 -135 -66 -66 -80 -128 -126 -90 -124 -111 -127 -178 -159 -147 -93 -126
-1 -23 -30 -1 -4 -8 -33 -25 -9 -8 -8 -53 0 0 0 -219 -157 -42 -45 -34 -44 -16 -15 -19 -14 -18 -42 -81 -85 -94 -92 -55 -68 -94 -91 -45 -119 -163 -135 -119 -71 -47 -61 -70
0 -2 0 -39 0 0 0 0 0 0 0 0 0 0 -163 -180 -171 -11 -2 -3 -31 -23 -22 -32 -2 -8 -37 -38 -30 -52 -56 -56 -71 -100 -125 -171 -126 -88 -146 -114 -101 -72 -47 -110
0 0 0 0 0 -15 -8 -1 -1 -4 -2 -48 -44 -8 -171 0 0 0 -6 -11 -15 -70 -68 -70 -102 -65 -57 -45 -37 -38 -23 -31 -38 -31 -19 -57 -78 -109 -36 -45 -62 -58 -3 0
0 0 0 0 0 0 -1 -6 0 -5 -18 -2 -17 -9 0 0 0 0 0 -3 0 0 -77 -69 -74 -70 -123 -157 -83 -43 -28 -15 -13 -33 -32 -20 -26 -52 -43 -36 -22 -19 -10 -6
0 0 -6 -5 -13 -9 -11 -9 -2 -12 0 -1 0 -8 -3 -2 -4 -100 -108 0 0 -127 0 -12 -8 -31 0 -46 -29 -50 -8 -16 -21 -12 -17 -27 -17 -8 -13 -46 -75 -27 -32 -16
-27 -38 -20 -11 -20 -17 -6 -15 -3 -29 -2 -14 -21 -30 -25 -22 -40 -33 -24 -18 -1 -36 -54 -49 -24 -4 -6 -5 -19 -100 -97 -52 -7 -21 -22 -21 -13 -11 -21 -35 -34 -35 -40 -38
-18 -14 -22 -4 -15 -22 -1 -1 0 -2 -2 -13 -23 -22 -26 -25 -11 -36 -26 -24 -19 -11 -2 -1 -3 -4 -6 -1 0 -25 -22 -22 -14 -15 -21 -21 -13 -6 -7 -3 -37 -37 -26 -12
-6 -32 -55 -2 0 0 -4 -2 -8 0 0 0 -1 -11 -14 -28 -17 0 -28 -2 -5 0 -9 -5 -3 -4 0 0 0 -19 -24 -28 -31 -29 -28 -4 -17 -21 -3 -43 -20 -23 -21 -25
0 0 0 -1 -11 -9 -2 -5 -1 -1 0 -2 -2 -2 0 -10 -3 -3 -3 -38 -16 -8 -32 -2 -3 -3 -1 0 -3 0 -3 0 -2 -6 -1 -3 -3 -1 -3 0 -3 -4 -3 -7
-2 -2 -2 -2 0 0 -2 -1 0 0 -1 0 -2 0 -1 -2 -4 -2 0 0 -38 -9 -22 -16 0 0 -4 -5 0 -1 -3 0 -8 -4 -7 0 0 0 0 0 0 0 0 0
0 0 0 0 0 0 0 0 0 0 0 0 -1 -7 -7 -1 0 0 0 -7 -10 -2 -12 -12 -9 -9 0 -16 -13 -1 0 -1 -22 -4 0 -2 -2 0 -5 -2 -2 -1 0 0
0 0 0 0 0 0 0 0 0 0 0 0 0 0 0 -2 -1 0 0 0 -4 -2 -4 -8 -11 -3 0 0 -7 -16 -7 -1 0 0 -4 -4 -4 -5 -1 -1 0 -2 -1 0
Wind_Speed
nan nan nan nan nan nan nan nan nan nan nan nan nan nan nan nan nan 23 29 nan nan nan 13 20 26 23 17 18 19 21 26 29 22 17 14 12 9 6 8 4 7 12 15 17
nan nan nan nan nan nan nan nan nan nan nan nan nan nan nan nan nan nan 16 nan nan nan 21 22 25 23 18 22 20 25 25 26 24 19 17 15 13 12 11 8 13 19 20 21
nan nan nan nan nan nan nan nan nan nan nan nan nan nan nan nan nan nan nan nan nan 32 31 24 24 23 24 24 31 32 30 24 22 22 17 17 19 18 14 17 21 16 17 20
nan nan nan nan nan nan nan nan nan nan nan nan nan nan nan nan nan nan nan nan 31 30 29 27 27 27 28 34 28 25 25 26 21 22 22 19 22 20 21 21 18 20 23 25
nan nan nan nan nan nan nan nan nan nan nan nan nan nan nan nan nan nan nan nan nan 46 35 31 35 35 34 38 28 31 28 27 21 22 26 27 23 24 23 23 24 24 27 33
nan nan nan nan nan nan nan nan 61 nan nan nan nan nan nan nan nan nan nan nan nan 57 53 44 30 42 47 37 32 32 25 28 26 27 30 29 26 28 29 30 32 32 36 33
nan nan nan nan nan nan nan nan 52 nan nan nan nan nan nan 32 nan 48 nan nan nan nan 60 50 41 50 41 38 41 27 23 27 29 34 30 32 30 31 35 38 39 42 47 44
nan nan nan nan nan nan nan 56 58 nan nan nan nan nan nan nan 31 36 50 48 nan nan nan 52 56 64 54 46 31 36 31 34 37 35 39 39 39 37 39 40 42 48 55 35
nan nan 58 nan 51 56 62 61 59 63 64 62 59 56 56 50 47 41 43 45 56 66 nan nan 58 53 58 46 50 51 46 42 35 37 43 44 47 47 42 41 45 50 42 38
nan nan 56 78 83 64 65 74 72 73 72 71 61 56 54 54 57 56 59 58 54 53 58 59 59 55 53 58 57 51 45 43 47 45 47 48 50 53 45 47 49 47 34 40
63 nan 69 81 73 74 72 69 80 79 75 69 62 57 49 55 62 57 56 59 63 61 54 50 53 57 58 66 69 69 50 50 50 50 54 55 59 56 51 50 51 33 39 44
nan nan 59 65 70 78 76 77 77 72 69 68 65 63 57 62 55 59 62 56 58 59 56 54 62 46 53 59 64 75 73 84 42 48 57 56 63 60 58 36 45 47 51 54
64 52 43 nan nan nan 65 64 61 61 nan 63 56 71 78 58 57 54 54 56 57 60 68 56 34 50 61 61 62 65 75 79 70 58 69 50 61 45 25 39 52 53 56 60
57 nan nan nan nan nan nan nan nan nan 77 58 66 50 50 58 53 53 55 57 57 48 nan nan nan nan 49 64 70 67 57 44 65 63 71 56 52 34 40 47 51 51 58 56
nan nan nan nan nan nan nan nan nan nan nan nan nan nan nan 51 56 56 46 43 48 46 26 12 44 39 51 59 67 52 47 44 42 51 54 51 43 48 48 55 53 55 57 60
nan nan nan nan nan nan nan nan nan nan nan nan nan nan nan nan 38 41 38 32 37 29 33 21 27 44 40 49 54 52 51 36 45 52 52 55 56 58 56 58 60 60 55 55
nan nan nan nan nan nan nan nan nan nan nan nan nan nan nan nan nan 44 37 34 30 27 29 25 25 32 40 40 43 38 39 38 42 45 49 60 61 61 65 60 64 56 nan nan
nan nan nan nan nan nan nan nan nan nan nan nan nan nan nan nan nan nan 34 28 nan 36 38 29 nan 34 34 36 39 39 45 38 37 42 47 53 61 65 51 51 53 nan nan nan
nan nan nan nan nan nan nan nan nan nan nan nan nan nan nan nan nan nan nan nan nan nan nan 36 39 39 nan nan 43 49 43 31 36 43 45 45 43 47 41 42 46 56 nan nan
nan nan nan nan nan nan nan nan nan nan nan nan nan nan nan nan nan nan nan nan nan nan nan nan nan nan nan nan nan nan 36 44 48 45 47 44 50 nan nan 52 38 32 nan nan
nan nan nan nan nan nan nan nan nan nan nan nan nan nan nan nan nan nan nan nan nan nan nan nan nan nan nan nan nan nan nan nan nan nan nan nan nan nan nan nan 33 36 nan nan
nan nan nan nan nan nan nan nan nan nan nan nan nan nan nan nan nan nan nan nan nan nan nan nan nan nan nan nan nan nan nan nan nan nan nan nan nan nan nan nan nan nan nan nan
nan nan nan nan nan nan nan nan nan nan nan nan nan nan nan nan nan nan nan nan nan nan nan nan nan nan nan nan nan nan nan nan nan nan nan nan nan nan nan nan nan nan nan nan
nan nan nan nan nan nan nan nan nan nan nan nan nan nan nan nan nan nan nan nan nan nan nan nan nan nan nan nan nan nan nan nan nan nan nan nan nan nan nan nan nan nan nan nan
nan nan nan nan nan nan nan nan nan nan nan nan nan nan nan nan nan nan nan nan nan nan nan nan nan nan nan nan nan nan nan nan nan nan nan nan nan nan nan nan nan nan nan nan
nan nan nan nan nan nan nan nan nan nan nan nan nan nan nan nan nan nan nan nan nan nan nan nan nan nan nan nan nan nan nan nan nan nan nan nan nan nan nan nan nan nan nan nan
nan nan nan nan nan nan nan nan nan nan nan nan nan nan nan nan nan nan nan nan nan nan nan nan nan nan nan nan nan nan nan nan nan nan nan nan nan nan nan nan nan nan nan nan
Wind_Direction
nan nan nan nan nan nan nan nan nan nan nan nan nan nan nan nan nan 258 286 nan nan nan 276 273 293 301 316 308 311 313 324 326 335 326 305 277 270 236 247 268 270 274 281 305
nan nan nan nan nan nan nan nan nan nan nan nan nan nan nan nan nan nan 258 nan nan nan 309 277 285 294 299 301 311 305 315 329 311 311 307 294 277 255 256 258 265 286 304 312
nan nan nan nan nan nan nan nan nan nan nan nan nan nan nan nan nan nan nan nan nan 306 306 282 267 281 285 290 290 299 305 308 307 303 306 297 280 264 263 264 275 284 291 305
nan nan nan nan nan nan nan nan nan nan nan nan nan nan nan nan nan nan nan nan 245 269 284 278 283 273 279 280 294 305 304 305 303 302 301 294 285 276 264 272 283 282 298 300
nan nan nan nan nan nan nan nan nan nan nan nan nan nan nan nan nan nan nan nan nan 264 270 271 263 254 266 270 284 293 294 297 292 290 289 292 297 278 267 267 276 293 291 294
nan nan nan nan nan nan nan nan 220 nan nan nan nan nan nan nan nan nan nan nan nan 254 258 266 272 275 264 261 276 282 292 298 288 281 276 283 287 277 264 271 280 279 284 296
nan nan nan nan nan nan nan nan 228 nan nan nan nan nan nan 246 nan 233 nan nan nan nan 263 265 268 270 286 273 274 280 286 270 269 285 262 268 269 269 273 268 268 273 273 267
nan nan nan nan nan nan nan 217 221 nan nan nan nan nan nan nan 251 239 239 240 nan nan nan 260 266 271 276 268 287 277 270 267 265 271 250 253 264 266 273 267 271 273 271 282
nan nan 187 nan 209 216 222 222 223 229 222 229 237 237 241 244 238 239 226 225 236 249 nan nan 252 270 280 281 267 258 268 266 259 261 253 256 263 265 267 264 265 267 283 297
nan nan 185 207 211 212 216 224 223 230 232 231 234 238 245 247 240 238 243 236 229 234 251 255 263 260 262 270 276 265 253 255 260 262 258 254 253 258 263 259 261 268 287 293
196 nan 192 204 210 220 224 224 226 229 232 232 235 236 234 240 241 244 247 240 242 236 235 239 261 261 259 262 268 266 249 245 246 245 248 248 241 242 248 249 259 277 283 285
nan nan 200 210 212 223 226 225 224 228 233 233 233 236 236 241 241 238 241 248 251 257 247 241 230 236 257 255 252 259 259 264 240 241 249 235 242 236 226 243 271 278 284 285
206 217 193 nan nan nan 226 226 231 237 nan 233 233 237 241 232 242 248 249 255 257 263 253 251 221 172 242 247 243 243 249 257 255 250 256 247 250 259 270 248 254 259 278 283
206 nan nan nan nan nan nan nan nan nan 220 230 234 226 233 238 245 247 249 260 260 278 nan nan nan nan 217 244 239 239 240 245 239 253 262 266 270 264 254 263 266 267 258 269
nan nan nan nan nan nan nan nan nan nan nan nan nan nan nan 244 244 249 254 263 273 273 283 203 198 200 221 224 238 255 242 249 254 255 252 258 258 264 259 259 269 269 269 269
nan nan nan nan nan nan nan nan nan nan nan nan nan nan nan nan 249 251 257 268 271 280 295 260 211 214 217 225 239 243 239 237 244 244 251 256 260 260 265 271 263 260 266 272
nan nan nan nan nan nan nan nan nan nan nan nan nan nan nan nan nan 247 254 258 262 250 255 248 237 229 225 228 236 236 230 240 248 249 250 254 259 266 265 259 270 279 nan nan
nan nan nan nan nan nan nan nan nan nan nan nan nan nan nan nan nan nan 249 243 nan 236 236 231 nan 237 241 242 246 254 229 224 234 242 248 255 260 271 263 268 280 nan nan nan
nan nan nan nan nan nan nan nan nan nan nan nan nan nan nan nan nan nan nan nan nan nan nan 240 237 241 nan nan 235 239 240 238 236 251 259 265 272 277 276 276 273 274 nan nan
nan nan nan nan nan nan nan nan nan nan nan nan nan nan nan nan nan nan nan nan nan nan nan nan nan nan nan nan nan nan 259 251 256 259 266 270 278 nan nan 274 276 272 nan nan
nan nan nan nan nan nan nan nan nan nan nan nan nan nan nan nan nan nan nan nan nan nan nan nan nan nan nan nan nan nan nan nan nan nan nan nan nan nan nan nan 268 275 nan nan
nan nan nan nan nan nan nan nan nan nan nan nan nan nan nan nan nan nan nan nan nan nan nan nan nan nan nan nan nan nan nan nan nan nan nan nan nan nan nan nan nan nan nan nan
nan nan nan nan nan nan nan nan nan nan nan nan nan nan nan nan nan nan nan nan nan nan nan nan nan nan nan nan nan nan nan nan nan nan nan nan nan nan nan nan nan nan nan nan
nan nan nan nan nan nan nan nan nan nan nan nan nan nan nan nan nan nan nan nan nan nan nan nan nan nan nan nan nan nan nan nan nan nan nan nan nan nan nan nan nan nan nan nan
nan nan nan nan nan nan nan nan nan nan nan nan nan nan nan nan nan nan nan nan nan nan nan nan nan nan nan nan nan nan nan nan nan nan nan nan nan nan nan nan nan nan nan nan
nan nan nan nan nan nan nan nan nan nan nan nan nan nan nan nan nan nan nan nan nan nan nan nan nan nan nan nan nan nan nan nan nan nan nan nan nan nan nan nan nan nan nan nan
nan nan nan nan nan nan nan nan nan nan nan nan nan nan nan nan nan nan nan nan nan nan nan nan nan nan nan nan nan nan nan nan nan nan nan nan nan nan nan nan nan nan nan nan